Weather History for Phoenix Deer Valley, AZ

Change the Weather History Date:

Monday, February 4, 2013

  Actual Average Record
Temperature  
Mean Temperature 62 °F -  
Max Temperature 72 °F 64 °F 79 °F (2009)
Min Temperature 53 °F 44 °F 28 °F (2011)
Degree Days  
Heating Degree Days 2    
Growing Degree Days 12 (Base 50)    
Moisture  
Dew Point 42 °F    
Average Humidity 51    
Maximum Humidity 83    
Minimum Humidity 28    
Precipitation  
Precipitation 0.00 in - - ()
Sea Level Pressure  
Sea Level Pressure 29.95 in    
Wind  
Wind Speed 3 mph (NE)    
Max Wind Speed 9 mph    
Max Gust Speed -    
Visibility 10 miles    
Events      
Averages and records for this station are not official NWS values.
T = Trace of Precipitation, MM = Missing Value Source: NWS Daily Summary

Daily Weather History Graph

Daily Weather History Graph

Search for Another Location

Airport:

Trip Planner

Search our weather history database for the weather conditions in past years. The results will help you decide how hot, cold, wet, or windy it might be!

Date:

Astronomy

Feb. 04, 2013 Rise Set
Actual Time 7:22 AM MST 6:02 PM MST
Civil Twilight 6:56 AM MST 6:28 PM MST
Nautical Twilight 6:26 AM MST 6:58 PM MST
Astronomical Twilight 5:57 AM MST 7:27 PM MST
Moon 1:58 AM MST (2/4) 12:33 PM MST (2/4)
Length of Visible Light 11h 32m
Length of Day
10h 40m
Last Quarter, 36% of the Moon is Illuminated
Feb 4
Last Quarter
Feb 10
New
Feb 17
First Quarter
Feb 25
Full
Mar 4
Last Quarter

Hourly Weather History & Observations

Time (MST) Temp. Dew Point Humidity Pressure Visibility Wind Dir Wind Speed Gust Speed Precip Events Conditions
12:53 AM 55.0 °F 48.9 °F 80% 29.96 in 10.0 mi Calm Calm - N/A   Clear
1:53 AM 53.1 °F 48.0 °F 83% 29.96 in 10.0 mi Calm Calm - N/A   Mostly Cloudy
4:53 AM 55.0 °F 46.0 °F 72% 29.95 in 10.0 mi NNE 3.5 mph - N/A   Overcast
5:53 AM 55.9 °F 43.0 °F 62% 29.96 in 10.0 mi North 4.6 mph - N/A   Overcast
6:53 AM 57.0 °F 43.0 °F 59% 29.96 in 10.0 mi Calm Calm - N/A   Overcast
7:53 AM 55.9 °F 43.0 °F 62% 29.98 in 10.0 mi NE 3.5 mph - N/A   Overcast
8:53 AM 57.9 °F 42.1 °F 56% 29.98 in 10.0 mi NNE 5.8 mph - N/A   Mostly Cloudy
9:53 AM 63.0 °F 43.0 °F 48% 29.99 in 10.0 mi WNW 3.5 mph - N/A   Clear
10:53 AM 64.9 °F 43.0 °F 45% 30.01 in 10.0 mi Calm Calm - N/A   Clear
11:53 AM 66.0 °F 43.0 °F 43% 29.99 in 10.0 mi South 5.8 mph - N/A   Clear
12:53 PM 68.0 °F 41.0 °F 37% 29.96 in 10.0 mi SE 5.8 mph - N/A   Clear
1:53 PM 70.0 °F 39.9 °F 33% 29.93 in 10.0 mi SE 3.5 mph - N/A   Clear
2:53 PM 72.0 °F 37.0 °F 28% 29.91 in 10.0 mi Variable 3.5 mph - N/A   Clear
3:53 PM 72.0 °F 37.0 °F 28% 29.89 in 10.0 mi Calm Calm - N/A   Clear
5:53 PM 70.0 °F 37.9 °F 31% 29.88 in 10.0 mi SSW 4.6 mph - N/A   Clear
6:53 PM 66.0 °F 39.9 °F 38% 29.90 in 10.0 mi WSW 4.6 mph - N/A   Clear
7:53 PM 62.1 °F 43.0 °F 50% 29.92 in 10.0 mi Calm Calm - N/A   Clear
8:53 PM 60.1 °F 43.0 °F 53% 29.94 in 10.0 mi North 3.5 mph - N/A   Clear
9:53 PM 59.0 °F 43.0 °F 55% 29.94 in 10.0 mi Calm Calm - N/A   Clear
10:53 PM 57.9 °F 43.0 °F 58% 29.95 in 10.0 mi NNE 8.1 mph - N/A   Clear
11:53 PM 55.9 °F 42.1 °F 60% 29.95 in 10.0 mi NE 9.2 mph - N/A   Clear